Johnstown, PA

1:03 AM EDT on August 26, 2016 (GMT -0400)
Johnstown-Cambria County

Weather History for KJST - March, 2013

Change the Weather History Date:

Tuesday, March 5, 2013

  Actual Average Record
Temperature  
Mean Temperature 27 °F 32 °F  
Max Temperature 39 °F 39 °F 78 °F (1992)
Min Temperature 15 °F 24 °F 3 °F (2015)
Degree Days  
Heating Degree Days 38 33  
Month to date heating degree days 170  
Since 1 July heating degree days 5049  
Cooling Degree Days 0 0  
Month to date cooling degree days 0  
Year to date cooling degree days 0  
Moisture  
Dew Point 13 °F    
Average Humidity 58    
Maximum Humidity 81    
Minimum Humidity 19    
Precipitation  
Precipitation 0.00 in 0.08 in 2.50 in (1967)
Month to date precipitation 0.37  
Year to date precipitation 5.60  
Sea Level Pressure  
Sea Level Pressure 29.94 in    
Wind  
Wind Speed 5 mph (East)    
Max Wind Speed 16 mph    
Max Gust Speed 26 mph    
Visibility 10 miles    
Events      
T = Trace of Precipitation, MM = Missing Value Source: NWS Daily Summary

Daily Weather History Graph

Daily Weather History Graph

Search for Another Location

Airport or City:

Trip Planner

Search our weather history database for the weather conditions in past years. The results will help you decide how hot, cold, wet, or windy it might be!

Date:

Astronomy

Mar. 05, 2013 Rise Set
Actual Time 6:42 AM EST 6:11 PM EST
Civil Twilight 6:15 AM EST 6:38 PM EST
Nautical Twilight 5:43 AM EST 7:10 PM EST
Astronomical Twilight 5:12 AM EST 7:42 PM EST
Moon 1:53 AM EST (3/5) 11:48 AM EST (3/5)
Length of Visible Light 12h 23m
Length of Day
11h 29m
Last Quarter, 41% of the Moon is Illuminated
Mar 5
Last Quarter
Mar 11
New
Mar 19
First Quarter
Mar 27
Full
Apr 3
Last Quarter

Hourly Weather History & Observations

Time (EST) Temp. Windchill Dew Point Humidity Pressure Visibility Wind Dir Wind Speed Gust Speed Precip Events Conditions
12:54 AM 19.9 °F 13.4 °F 12.9 °F 74% 30.07 in 10.0 mi WNW 4.6 mph - N/A   Clear
2:54 AM 18.0 °F 9.8 °F 12.9 °F 81% 30.07 in 10.0 mi West 5.8 mph - N/A   Clear
3:54 AM 16.0 °F 6.3 °F 10.9 °F 81% 30.06 in 10.0 mi WNW 6.9 mph - N/A   Clear
4:54 AM 17.1 °F - 10.9 °F 77% 30.06 in 10.0 mi Calm Calm - N/A   Clear
5:54 AM 15.1 °F - 9.0 °F 77% 30.07 in 10.0 mi Calm Calm - N/A   Clear
6:54 AM 16.0 °F - 9.0 °F 74% 30.06 in 10.0 mi Calm Calm - N/A   Clear
8:54 AM 19.0 °F - 10.9 °F 71% 30.06 in 10.0 mi Calm Calm - N/A   Clear
9:54 AM 23.0 °F 18.4 °F 14.0 °F 68% 30.04 in 10.0 mi WSW 3.5 mph - N/A   Clear
10:54 AM 28.9 °F - 14.0 °F 54% 30.01 in 10.0 mi Calm Calm - N/A   Clear
11:54 AM 33.1 °F - 10.9 °F 40% 30.01 in 10.0 mi Calm Calm - N/A   Clear
12:54 PM 35.1 °F - 6.1 °F 30% 29.98 in 10.0 mi Calm Calm - N/A   Clear
1:54 PM 37.9 °F 35.5 °F -0.9 °F 19% 29.94 in 10.0 mi NNE 3.5 mph - N/A   Clear
2:54 PM 39.0 °F 33.4 °F 10.9 °F 32% 29.89 in 10.0 mi NE 8.1 mph - N/A   Clear
4:54 PM 37.0 °F 31.6 °F 7.0 °F 29% 29.89 in 10.0 mi ESE 6.9 mph - N/A   Clear
5:54 PM 34.0 °F 26.0 °F 10.0 °F 37% 29.87 in 10.0 mi East 10.4 mph 18.4 mph N/A   Clear
6:54 PM 32.0 °F 25.6 °F 15.1 °F 50% 29.85 in 10.0 mi East 6.9 mph - N/A   Mostly Cloudy
7:54 PM 32.0 °F 22.5 °F 18.0 °F 56% 29.84 in 10.0 mi East 12.7 mph 20.7 mph N/A   Partly Cloudy
8:54 PM 30.9 °F 21.2 °F 19.0 °F 61% 29.81 in 10.0 mi East 12.7 mph 23.0 mph N/A   Clear
9:54 PM 30.0 °F 18.7 °F 19.9 °F 66% 29.78 in 10.0 mi East 16.1 mph 24.2 mph N/A   Clear
10:54 PM 30.0 °F 20.5 °F 21.0 °F 69% 29.76 in 10.0 mi ESE 11.5 mph 26.5 mph N/A   Overcast
11:54 PM 30.0 °F 18.7 °F 21.0 °F 69% 29.72 in 10.0 mi East 16.1 mph 25.3 mph N/A   Overcast